Miscellaneous Local Product
Issued by NWS Hastings, NE

Home | Current Version | Previous Version | Graphics & Text | Print | Product List | Glossary On
Versions: 1 2 3 4 5 6 7 8 9 10 11 12 13 14 15 16 17 18 19 20 21 22 23 24 25 26 27 28 29 30 31 32 33 34 35 36 37 38 39 40 41 42 43 44 45 46 47 48 49 50
000
AXUS43 KGID 281202
MISGRI

GID CWA HOURLY WEATHER ROUNDUP
NATIONAL WEATHER SERVICE HASTINGS NE
700 AM CDT MON JUL 28 2014

NOTE: "FAIR" INDICATES FEW OR NO CLOUDS BELOW 12,000 FEET WITH NO
SIGNIFICANT WEATHER AND/OR OBSTRUCTIONS TO VISIBILITY.

...SOUTH CENTRAL NEBRASKA...

CITY           SKY/WX    TMP DP  RH WIND       PRES   REMARKS
GRAND ISLAND   CLEAR     57  54  89 NW6       30.32R
HASTINGS       CLEAR     58  54  86 NW5       30.31R
KEARNEY        CLEAR     55  54  94 N6        30.32S
ORD            CLEAR     53  52  96 SW6       30.32R
YORK           CLEAR     55  55 100 NW7       30.29S
AURORA         CLEAR     56  56 100 NW3       30.30R
LEXINGTON      CLEAR     54  53  95 NE3       30.32F
HOLDREGE       CLEAR     56  55  94 NE3       30.32R
HEBRON         PTCLDY    58  54  84 N6        30.28R

...NEBRASKA PANHANDLE...

CITY           SKY/WX    TMP DP  RH WIND       PRES   REMARKS
CHADRON        CLEAR     54  50  86 N7        30.34S
ALLIANCE       CLEAR     53  49  86 E7        30.34S
SCOTTSBLUFF    CLEAR     58  50  75 E7        30.32S
SIDNEY         CLEAR     56  47  71 SE5       30.34S

...WESTERN AND NORTH CENTRAL NEBRASKA...

CITY           SKY/WX    TMP DP  RH WIND       PRES   REMARKS
VALENTINE      CLEAR     50  48  93 W3        30.35R
AINSWORTH      CLEAR     52  51  97 CALM      30.35R
ONEILL         CLEAR     54  51  88 NW7       30.32R
BROKEN BOW     CLEAR     53  51  93 N6        30.34R
IMPERIAL       PTCLDY    56  51  84 SE5       30.32S
NORTH PLATTE   CLEAR     53  50  89 E3        30.34R
MCCOOK         PTCLDY    57  54  89 NE5       30.32R

...EASTERN NEBRASKA...

CITY           SKY/WX    TMP DP  RH WIND       PRES   REMARKS
NORFOLK        CLEAR     56  53  90 NW3       30.28R
SO SIOUX CITY  CLEAR     58  55  90 NW6       30.24S
ALBION         CLEAR     53  51  93 CALM      30.31R
OMAHA EPPLEY   PTCLDY    58  55  90 N5        30.23R
OFFUTT AFB     CLEAR     60  59  97 N5        30.23R
MILLARD        CLEAR     60  56  87 CALM      30.23R
LINCOLN        CLEAR     60  54  80 NW7       30.27R
NEBRASKA CITY  CLEAR     58  58 100 NW5       30.24R
BEATRICE       CLEAR     56  55  95 N8        30.25R
FALLS CITY     NOT AVBL

...NORTHERN KANSAS...

CITY           SKY/WX    TMP DP  RH WIND       PRES   REMARKS
GOODLAND       MOCLDY    60  53  77 SE5       30.32F
HILL CITY      PTCLDY    61  56  83 NE5       30.30R
NORTON         SUNNY     57  54  88 CALM      30.31R
PHILLIPSBURG   CLEAR     61  57  88 CALM      30.29R
SMITH CENTER   CLEAR     59  55  88 NE10      30.29R
HAYS           PTCLDY    61  54  77 NE9       30.29R
RUSSELL        PTCLDY    61  55  81 NE7       30.27R
CONCORDIA      CLEAR     60  57  89 N6        30.27R
SALINA         PTCLDY    63  56  78 N7        30.26R
TOPEKA         CLEAR     63  58  83 N8        30.22R



USA.gov is the U.S. government's official web portal to all federal, state and local government web resources and services.